www.pogodaiklimat.ru

Погода и климат >> Архив погоды >> Норвегия >> Juvvasshoe


ПОГОДА в Juvvasshoe

  • Прогноз погоды в Juvvasshoe
  • Монитор погоды в Juvvasshoe
  • Климат города

АРХИВ ПОГОДЫ в Juvvasshoe

Время (UTC), дата Ветер
(напр.,м/с)
 
Видим.   Явления Облачность Т
(С)
Тd
(С)
f
(%)
Тe
(С)
Тes
(С)
Комфортность P
(гПа)
Po
(гПа)
Тmin
(С)
Tmax
(С)
R
(мм)
R24
(мм)
S
(см)
05 14.04 Ю 8-5
{11}
н/о н/о +2.6 -2.8 68 -4 -4 1018.2 810.0
04 14.04 Ю 4-5
{6}
н/о н/о +2.2 -2.4 72 -2 -2 1018.9 810.3
06 14.04 Ю 6-8
{11}
н/о н/о +1.6 -3.2 70 -4 -4 1019.4 810.4 +0.2 +3.0 48
07 14.04 Ю 4-7
{7}
н/о н/о +3.0 -4.0 60 -1 -1 1018.6 810.5
08 14.04 Ю 3-6
{8}
н/о н/о +4.4 -5.3 49 +1 +1 1017.5 810.6
09 14.04 З 3-6
{7}
н/о н/о +5.9 -5.5 44 +3 +3 1016.5 810.7
11 14.04 Ю 3 н/о н/о +5.8 -1.7 59 +3 +3 1016.8 811.0
10 14.04 Ю 2-5
{5}
н/о н/о +5.4 -5.0 47 +4 +4 1016.9 810.7
12 14.04 Ю 4-6
{8}
н/о н/о +4.7 -0.4 69 +1 +1 1017.9 811.0
13 14.04 ЮВ 1-5
{5}
н/о н/о +6.4 -3.2 50 +6 +6 1016.5 811.1
14 14.04 Ю 1-2
{3}
н/о н/о +6.1 -1.3 59 +5 +5 1016.5 810.8
15 14.04 Ю 2-4
{4}
н/о н/о +5.7 -1.6 59 +4 +4 1016.5 810.6
17 14.04 штиль 0 н/о н/о +6.3 -3.3 50 +6 +6 1015.8 810.4
16 14.04 СЗ 1-2
{2}
н/о н/о +5.2 -2.9 56 +4 +4 1016.7 810.6
18 14.04 ЮВ 1
{5}
н/о н/о +4.4 -4.6 52 +4 +4 1017.2 810.4 +8.0
19 14.04 -2
{2}
н/о н/о +3.8 -3.1 61 1018.1 810.6
20 14.04 СЗ 1-2
{2}
н/о н/о +4.0 -2.5 63 +3 +3 1017.9 810.6
21 14.04 СЗ 2-2
{3}
н/о н/о +4.3 -3.3 58 +2 +2 1017.2 810.3
23 14.04 СЗ 1-3
{3}
н/о н/о +3.9 -4.5 54 +3 +3 1016.9 809.8
22 14.04 СЗ 2-3
{3}
н/о н/о +4.6 -4.5 52 +3 +3 1016.7 810.0
00 15.04 ЮВ 1
{3}
н/о н/о +3.4 -5.4 52 +3 +3 1017.4 809.8
01 15.04 Ю 1-2
{2}
н/о н/о +2.6 -4.9 58 +2 +2 1017.5 809.4
02 15.04 Ю 2-1
{2}
н/о н/о +3.1 -5.4 54 +1 +1 1016.7 809.0
03 15.04 Ю 1-2
{2}
н/о н/о +3.3 -4.8 55 +2 +2 1016.1 808.7
05 15.04 штиль 0
{1}
н/о н/о +3.0 -4.5 58 +3 +3 1015.8 808.3
04 15.04 С 1-1
{1}
н/о н/о +3.4 -4.1 58 +2 +2 1015.8 808.5
06 15.04 штиль 0-1
{2}
н/о н/о +4.2 -4.7 52 +4 +4 1014.6 808.2 +2.5 +4.8 46
07 15.04 Ю 1-1
{1}
н/о н/о +4.7 -7.8 40 +4 +4 1014.3 808.1
08 15.04 штиль 0-1
{1}
н/о н/о +6.2 -9.1 32 +6 +6 1012.7 807.8
09 15.04 штиль 0-1
{1}
н/о н/о +8.3 -8.4 30 +8 +8 1010.9 807.6
11 15.04 штиль 0-1
{1}
н/о н/о +7.6 -7.5 33 +8 +8 1011.0 807.4
10 15.04 СЗ 1
{2}
н/о н/о +6.0 -6.7 40 +6 +6 1012.4 807.5
12 15.04 СЗ 1-1
{2}
н/о н/о +5.8 -6.5 41 +5 +5 1011.9 807.0
13 15.04 штиль 0-2
{2}
н/о н/о +4.8 -4.9 49 +4 +4 1012.2 806.6
14 15.04 Ю 1-1
{1}
н/о н/о +4.0 -3.5 58 +3 +3 1012.4 806.2
15 15.04 штиль 0-2
{2}
н/о н/о +4.8 -4.9 49 +4 +4 1011.1 805.7
17 15.04 штиль 0-1
{1}
н/о н/о +3.3 -3.3 62 +3 +3 1011.5 805.0
16 15.04 В 1
{1}
н/о н/о +4.4 -5.1 50 +4 +4 1011.1 805.4
18 15.04 штиль 0
{2}
н/о н/о +2.4 -3.6 65 +2 +2 1011.7 804.7 +2.4 +9.3
19 15.04 штиль 0 н/о н/о +1.5 -3.6 69 +1 +1 1012.4 804.6
20 15.04 штиль 0 н/о н/о +1.0 -3.5 72 0 0 1012.5 804.4
21 15.04 штиль 0
{1}
н/о н/о +1.0 -2.4 78 0 0 1012.3 804.2
23 15.04 штиль 0 н/о н/о -0.4 -2.3 87 -2 -2 1012.7 803.6
22 15.04 штиль 0-1
{1}
н/о н/о +0.2 -1.8 86 -1 -1 1012.6 803.9
00 16.04 штиль 0-1
{1}
н/о н/о -0.9 -2.0 92 -2 -2 1012.9 803.4
01 16.04 штиль 0
{3}
н/о н/о -0.8 -2.1 91 -2 -2 1012.3 803.0
02 16.04 Ю 1
{2}
н/о н/о -1.2 -2.4 92 -3 -3 1012.4 802.8
03 16.04 штиль 0-1
{1}
н/о н/о -0.9 -1.9 93 -2 -2 1012.0 802.7
05 16.04 штиль 0-1
{2}
н/о н/о -0.2 -1.9 88 -1 -1 1011.3 802.6
04 16.04 штиль 0-1
{2}
н/о н/о -0.8 -1.9 92 -2 -2 1011.8 802.5
06 16.04 штиль 0-1
{3}
н/о н/о +0.7 -2.7 78 -0 -0 1010.9 802.8 -1.2 +2.4 47
07 16.04 штиль 0
{1}
н/о н/о +1.2 -2.4 77 0 0 1010.3 802.7
08 16.04 штиль 0
{1}
н/о н/о +1.5 -2.8 73 +1 +1 1010.2 802.8
09 16.04 Ю 2-1
{3}
н/о н/о +1.4 -3.0 72 -2 -2 1010.5 803.0
11 16.04 СВ 1-3
{3}
н/о н/о +0.8 -2.5 79 -1 -1 1011.5 803.4
10 16.04 ЮВ 2-3
{5}
н/о н/о +1.7 -3.0 71 -1 -1 1010.4 803.1
12 16.04 Ю 2
{5}
н/о н/о +1.2 -2.3 77 -2 -2 1011.3 803.5
13 16.04 ЮВ 2-2
{3}
н/о н/о +1.2 -2.4 77 -2 -2 1011.5 803.6
14 16.04 В 1-3
{3}
н/о н/о +1.5 -2.4 75 -0 -0 1011.2 803.6
15 16.04 Ю 1-3
{3}
н/о н/о +1.3 -2.0 79 -0 -0 1011.4 803.7
17 16.04 штиль 0-1
{2}
н/о н/о -0.6 -1.3 95 -2 -2 1013.1 803.7
16 16.04 штиль 0-2
{2}
н/о н/о +0.4 -1.8 85 -1 -1 1012.4 803.8
18 16.04 штиль 0-1
{3}
н/о н/о -0.5 -1.6 92 -2 -2 1013.4 804.0 -0.8 +2.6
19 16.04 штиль 0-1
{1}
н/о н/о -0.9 -1.6 95 -2 -2 1014.3 804.5
20 16.04 штиль 0-1
{1}
н/о н/о -1.1 -1.8 95 -2 -2 1014.6 804.6
21 16.04 штиль 0 н/о н/о -1.8 -2.5 95 -3 -3 1015.4 804.8
23 16.04 штиль 0-1
{1}
н/о н/о -1.7 -3.2 89 -3 -3 1015.9 805.3
22 16.04 штиль 0-1
{2}
н/о н/о -1.5 -2.3 94 -3 -3 1015.3 804.9
00 17.04 штиль 0
{2}
н/о н/о -1.6 -4.6 80 -3 -3 1016.3 805.6
01 17.04 штиль 0
{1}
н/о н/о -1.1 -4.2 79 -2 -2 1016.0 805.7
02 17.04 штиль 0
{1}
н/о н/о -1.0 -4.2 79 -2 -2 1015.9 805.7
03 17.04 штиль 0
{1}
н/о н/о -1.2 -3.4 85 -2 -2 1016.1 805.7
05 17.04 штиль 0 н/о н/о -1.2 -4.4 79 -2 -2 1016.7 806.2
04 17.04 штиль 0-1
{1}
н/о н/о -1.9 -2.9 93 -3 -3 1016.8 805.8
06 17.04 штиль 0
{1}
н/о н/о +0.9 -4.2 69 0 0 1015.3 806.4 -2.2 +0.9 46
07 17.04 ЮВ 1
{1}
н/о н/о +0.3 -5.2 67 -1 -1 1016.1 806.7
08 17.04 Ю 3-1
{4}
н/о н/о +0.3 -5.0 68 -4 -4 1016.3 806.9
09 17.04 ЮВ 4-4
{5}
н/о н/о +0.8 -4.4 68 -4 -4 1016.1 807.2
11 17.04 ЮВ 5-5
{6}
н/о н/о +1.3 -3.8 69 -4 -4 1016.2 807.5
10 17.04 ЮВ 5-4
{5}
н/о н/о +1.4 -3.9 68 -4 -4 1016.2 807.5
12 17.04 ЮВ 5-6
{6}
н/о н/о +1.4 -4.0 67 -4 -4 1016.0 807.5
13 17.04 ЮВ 7-6
{8}
н/о н/о +1.7 -3.6 68 -5 -5 1015.6 807.4
14 17.04 ЮВ 5-8
{8}
н/о н/о +1.5 -3.0 72 -4 -4 1015.9 807.4
15 17.04 Ю 7-8
{9}
н/о н/о +1.1 -4.2 68 -5 -5 1015.8 807.0
17 17.04 ЮВ 8-10
{10}
н/о н/о -0.3 -3.3 80 -8 -8 1016.5 806.6
16 17.04 Ю 6-8
{8}
н/о н/о +0.4 -4.4 70 -6 -6 1016.2 806.9
18 17.04 ЮВ 8-10
{10}
н/о н/о -0.7 -3.3 83 -8 -8 1016.4 806.3 -0.7 +2.0
19 17.04 Ю 9-11
{13}
н/о н/о -0.5 -4.6 74 -8 -8 1016.3 806.4
20 17.04 Ю 3-10
{11}
н/о н/о -0.5 -1.8 91 -5 -5 1016.7 806.6
21 17.04 Ю 5-5
{9}
н/о н/о -0.8 -1.0 99 -7 -7 1016.4 806.0
23 17.04 З 3-14
{23}
н/о н/о -1.3 -2.0 95 -6 -6 1016.1 805.6
22 17.04 З 4-7
{15}
н/о н/о -0.3 -1.3 93 -6 -6 1015.3 805.7
00 18.04 ЮЗ 6-16
{23}
н/о н/о -1.1 -2.1 93 -8 -8 1016.1 805.8
01 18.04 З 3-9
{10}
н/о н/о -1.8 -2.2 97 -7 -7 1016.7 805.8
02 18.04 ЮЗ 8-14
{17}
н/о н/о -1.5 -2.0 96 -10 -10 1016.8 806.1
03 18.04 ЮЗ 10-13
{17}
н/о н/о -1.5 -2.0 96 -10 -10 1016.7 806.0
05 18.04 ЮЗ 12-24
{24}
н/о н/о -2.0 -2.7 95 -12 -12 1017.7 806.5
04 18.04 ЮЗ 13-15
{20}
н/о н/о -1.4 -2.1 95 -11 -11 1016.8 806.2
06 18.04 З 13-22
{26}
н/о н/о -1.5 -2.9 90 -11 -11 1018.9 807.7 -2.4 +0.6 47
07 18.04 З 14-21
{21}
н/о н/о -1.4 -2.1 95 -11 -11 1019.1 808.0
08 18.04 З 13-18
{19}
н/о н/о -0.5 -1.9 90 -10 -10 1019.6 809.0
09 18.04 З 12-16
{16}
н/о н/о -0.7 -1.8 92 -10 -10 1020.6 809.8
11 18.04 З 10-15
{15}
н/о н/о +0.5 -1.9 84 -8 -8 1021.5 811.2
10 18.04 З 13-15
{16}
н/о н/о +1.2 -3.2 72 -7 -7 1019.9 810.3
12 18.04 ЮЗ 11-13
{21}
н/о н/о +1.1 -2.3 78 -7 -7 1021.6 811.6
13 18.04 ЮЗ 11-20
{20}
н/о н/о +0.7 -1.8 83 -8 -8 1022.7 812.3
14 18.04 ЮЗ 10-19
{21}
н/о н/о +1.4 -2.2 77 -6 -6 1022.7 812.7
15 18.04 ЮЗ 9-14
{18}
н/о н/о +0.1 -0.7 94 -8 -8 1024.6 813.3
17 18.04 ЮЗ 9-14
{16}
н/о н/о -0.2 -0.7 96 -8 -8 1025.5 813.8
16 18.04 ЮЗ 9-16
{16}
н/о н/о -0.1 -0.8 95 -8 -8 1024.9 813.5
18 18.04 ЮЗ 9-15
{21}
н/о н/о -0.9 -1.4 96 -9 -9 1026.1 813.9 -1.7 +1.4
19 18.04 З 9-15
{15}
н/о н/о -1.4 -8 -8 1027.5 814.6
20 18.04 ЮЗ 10-13
{15}
н/о н/о -1.0 -2.5 90 -10 -10 1027.7 815.0
21 18.04 СВ 1-12
{12}
н/о н/о -1.6 -2.3 95 -4 -4 1028.4 815.2
23 18.04 З 2-9
{12}
н/о н/о -1.5 -2.8 91 -5 -5 1029.1 815.9
22 18.04 З 6-2
{8}
н/о н/о -1.9 -2.3 97 -9 -9 1028.9 815.4
00 19.04 З 7-7
{15}
н/о н/о -0.8 -2.1 91 -8 -8 1028.5 815.8
01 19.04 ЮЗ 9-14
{15}
н/о н/о -0.1 -1.0 94 -8 -8 1027.7 815.7
02 19.04 ЮЗ 8-15
{15}
н/о н/о +0.9 -0.5 90 -6 -6 1026.7 815.6
03 19.04 ЮЗ 7-10
{12}
н/о н/о +1.3 -1.5 82 -5 -5 1026.4 815.8
05 19.04 ЮЗ 10-17
{19}
н/о н/о +2.7 +2.6 99 -5 -5 1025.3 815.6
04 19.04 ЮЗ 12-16
{18}
н/о н/о +2.5 0.0 84 -5 -5 1025.1 815.4
06 19.04 ЮЗ 11-18
{19}
н/о н/о +2.7 -3 -3 1025.5 815.8 -2.2 +3.0 46
07 19.04 ЮЗ 6-16
{19}
н/о н/о +3.7 +1.7 87 -2 -2 1024.9 816.0
08 19.04 ЮЗ 8-11
{18}
н/о н/о +3.9 +1.0 81 -2 -2 1024.7 815.9
09 19.04 ЮЗ 11-19
{20}
н/о н/о +4.5 +0.3 74 -2 -2 1024.0 815.8
11 19.04 ЮЗ 12-22
{24}
н/о н/о +5.5 -3.4 53 -1 -1 1022.9 815.6
10 19.04 ЮЗ 14-15
{23}
н/о н/о +6.2 -6.5 40 0 0 1022.0 815.2
12 19.04 ЮЗ 12-19
{24}
н/о н/о +5.3 -4.3 50 -1 -1 1022.8 815.4
13 19.04 ЮЗ 12-23
{26}
н/о н/о +5.3 -7.0 41 -1 -1 1022.4 815.0
14 19.04 ЮЗ 8-24
{24}
н/о н/о +5.5 -8.6 35 +1 +1 1022.3 815.1
15 19.04 З 5-17
{17}
н/о н/о +5.4 -8.2 37 +2 +2 1022.0 814.7
17 19.04 ЮЗ 7-18
{18}
н/о н/о +3.1 -1.3 73 -3 -3 1022.8 813.9
16 19.04 ЮЗ 9-13
{19}
н/о н/о +3.7 -2.4 64 -3 -3 1023.1 814.5
18 19.04 ЮЗ 13-16
{26}
н/о н/о +3.3 -0.3 77 -4 -4 1021.5 812.9 +2.7 +6.4
19 19.04 ЮЗ 14-25
{30}
н/о н/о +3.8 -0.3 75 -4 -4 1019.7 811.9
20 19.04 ЮЗ 16-28
{29}
н/о н/о +3.6 -0.1 77 -5 -5 1020.0 812.1
21 19.04 ЮЗ 18-27
{36}
н/о н/о +4.1 -0.1 74 -4 -4 1018.4 811.0
23 19.04 ЮЗ 19-36
{36}
н/о н/о +3.9 +1.0 81 -5 -5 1016.4 809.4
22 19.04 ЮЗ 21-25
{38}
н/о н/о +4.1 +0.2 76 -5 -5 1017.2 810.0
00 20.04 ЮЗ 19-32
{38}
н/о н/о +3.5 +0.5 81 -5 -5 1016.9 809.5
01 20.04 ЮЗ 20-27
{35}
н/о н/о +3.1 -0.4 78 -6 -6 1016.6 809.0
02 20.04 ЮЗ 16-34
{37}
н/о н/о +3.6 +0.1 78 -5 -5 1015.7 808.5
03 20.04 ЮЗ 10-27
{27}
н/о н/о +2.3 +1.1 92 -5 -5 1016.8 808.6
05 20.04 ЮЗ 11-23
{23}
н/о н/о +1.2 -0.8 87 -7 -7 1016.3 807.5
04 20.04 ЮЗ 11-25
{25}
н/о н/о +1.6 +0.7 94 -7 -7 1016.8 808.1
06 20.04 ЮЗ 11-18
{37}
н/о н/о +1.1 -2.2 79 -7 -7 1015.9 807.1 +1.0 +4.3 42
07 20.04 ЮЗ 8-19
{20}
н/о н/о +1.0 -1.5 83 -6 -6 1015.9 807.0
08 20.04 ЮЗ 9-19
{19}
н/о н/о +1.4 -2.5 75 -6 -6 1013.9 805.8
09 20.04 ЮЗ 7-16
{17}
н/о н/о +1.2 -1.0 85 -6 -6 1014.4 806.0
11 20.04 ЮЗ 10-23
{24}
н/о н/о +1.3 -2.2 77 -6 -6 1012.4 804.5
10 20.04 ЮЗ 9-23
{23}
н/о н/о +1.7 -1.6 79 -6 -6 1013.2 805.3
12 20.04 З 15-25
{25}
н/о н/о -0.7 -1.1 97 -11 -11 1012.9 803.6
13 20.04 З 12-26
{26}
н/о н/о -1.1 -1.3 99 -11 -11 1013.2 803.5
14 20.04 З 14-17
{23}
н/о н/о -1.6 -2.0 97 -12 -12 1012.2 802.4
15 20.04 ЮЗ 12-17
{23}
н/о н/о -2.1 -3.5 90 -12 -12 1011.9 801.8
17 20.04 ЮЗ 11-19
{21}
н/о н/о -2.8 -3.7 94 -12 -12 1011.2 800.8
16 20.04 ЮЗ 14-21
{26}
н/о н/о -2.7 -4.5 87 -13 -13 1011.3 800.9
18 20.04 ЮЗ 13-20
{26}
н/о н/о -3.3 -4.9 89 -14 -14 1011.0 800.3 -3.3 +2.5
19 20.04 ЮЗ 12-19
{24}
н/о н/о -3.3 -4.5 91 -13 -13 1009.7 1010.0
20 20.04 ЮЗ 13-23
{25}
н/о н/о -3.6 -4.3 95 -14 -14 1010.6 1011.0
21 20.04 ЮЗ 13-20
{21}
н/о н/о -3.9 -4.5 96 -14 -14 1010.4 1010.0
23 20.04 З 20-23
{26}
н/о н/о -5.2 -6.0 94 -18 -18 1010.1 1010.0
22 20.04 З 20-20
{26}
н/о н/о -4.8 -5.5 95 -17 -17 1010.1 1010.0
00 21.04 З 20-26
{28}
н/о н/о -5.3 -5.8 96 -18 -18 1010.2 1010.0
01 21.04 З 22-27
{29}
н/о н/о -5.5 -7.0 89 -19 -19 1009.7 1010.0
02 21.04 З 20-27
{27}
н/о н/о -5.9 -6.9 93 -19 -19 1010.6 1011.0
03 21.04 ЮЗ 23-26
{33}
н/о н/о -5.8 -6.7 93 -19 -19 1008.7 1009.0
04 21.04 З 22-31
{33}
н/о н/о -5.8 -6.3 96 -19 -19 1008.8 1009.0

 

Местоположение метеостанции Juvvasshoe (Норвегия): широта 61.68 долгота 8.37 высота над уровнем моря 1894 м.

В архиве по умолчанию представлена погода в Juvvasshoe за последнюю неделю. Архивные данные за месяц целиком и за предыдущие месяцы, начиная с января 2011 года, Вы можете получить, выбрав интересующий диапазон дат из раскрывающегося списка и нажав кнопку "Ввод!".


*Определитесь, кто Вы:
робот инопланетянин человек

Внимание! Время в таблицах - всемирное. Для получения местного времени необходимо прибавить поправку, которая в Juvvasshoe равна 1 ч.

Смотрите также архив погоды в соседних городах и на ближайших метеорологических станциях:

Погода в Sognefjellhytta (Норвегия) (23 км)
Погода в Brata (Норвегия) (36 км)
Погода в Grotli III (Норвегия) (53 км)
Погода в Beitostolen II (Норвегия) (56 км)
Погода в Skabu (Норвегия) (57 км)
Погода в Filefjell-Kyrkjestolane (Норвегия) (57 км)
Погода в Dombas-Nordigard (Норвегия) (59 км)
Погода в Bjorli (Норвегия) (65 км)
Погода в Fokstugu (Норвегия) (68 км)
Погода в Loken i Volbu (Норвегия) (72 км)

Пояснения к столбцам:

Ветер - указаны скорость ветра в м/с - средняя за 10 мин, порывы в срок и между сроками (в фигурных скобках) и направление, откуда дует ветер: С - северный, СВ - северо-восточный, В - восточный, ЮВ - юго-восточный, Ю - южный, ЮЗ - юго-западный, З - западный, СЗ - северо-западный.
Видимость - горизонтальная дальность видимости в метрах или километрах. При видимости от 1 до 10 км при отсутствии осадков обычно наблюдается дымка, при ухудшении видимости до 1 км и менее - туман. В сухую погоду видимость может ухудшаться дымом, пылью или мглою.
Явления - указаны атмосферные явления, наблюдавшиеся в срок или в последний час перед сроком; фигурными скобками обозначены явления, наблюдавшиеся между сроками (за 1-3 часа до срока); квадратными скобками обозначены град или гололедные отложения с указанием их диаметра в мм.
Облачность - указаны через наклонную черту общая и нижняя облачность в баллах и высота нижней границы облаков в метрах; квадратными скобками обозначены формы облаков: Ci - перистые, Cs - перисто-слоистые, Cc - перисто-кучевые, Ac - высококучевые, As - высокослоистые, Sc - слоисто-кучевые, Ns - слоисто-дождевые, Cu - кучевые, Cb - кучево-дождевые. Подробнее классификацию облаков см. в Атласе облаков (PDF).
T - Температура воздуха - температура, измеренная на высоте 2 м над землей.
Td - Температура точки росы - температура, при понижении до которой содержащийся в воздухе водяной пар достигнет насыщения.
f - Относительная влажность воздуха - влажноcть воздуха, измеренная на высоте 2 м над землей.
Te - Эффективная температура - температура, которую ощущает одетый по сезону человек в тени. Характеристика душности погоды. При расчете учитывается влияние влажности воздуха и скорости ветра на теплоощущения человека.
Tes - Эффективная температура на солнце - температура, которую ощущает человек, с поправкой на солнечный нагрев. Характеристика знойности погоды. Зависит от высоты солнца над горизонтом, облачности и скорости ветра. Ночью, в пасмурную погоду, а также при ветре 12 м/с и более поправка равна нулю.
P - Атмосферное давление - приведенное к уровню моря атмосферное давление.
Po - Атмосферное давление - измеренное на уровне метеостанции атмосферное давление.
Tmin - Минимальная температура - минимум температуры воздуха на высоте 2 м над землей.
Tmax - Максимальная температура - максимум температуры воздуха на высоте 2 м над землей.
R - Количество осадков - Количество выпавших осадков за период времени, мм. При наведении курсора мыши на число - период времени, за который выпало указанное количество осадков.
R24 - Количество осадков - Количество выпавших осадков за 24 часа, мм.
S - Снежный покров - Высота снежного покрова, см. При наведении курсора мыши на число - состояние снежного покрова и степень покрытия местности в баллах.